sat.trackr.live / text

‹ back to catalog

STARLINK-36780

NORAD 67866 · 2026-034S

PAYLOAD ACTIVE UNKNOWN

§ Identity

Operator
Country
US
Launch date
2026-02-20
Launch site
AFETR
Launch vehicle
Mass (kg)
RCS (m²)

Purposes: comms

External: N2YO · Heavens-Above · Gunter

§ Orbital elements

Epoch: 2026-05-24T21:40:13.922688Z

Period
94.11 min
Inclination
53.1589°
Eccentricity
0.0001133
Mean motion
15.30180248 rev/d
Perigee alt
474.5 km
Apogee alt
476.1 km
Semi-major
6,853.4 km
B*
5.6220e-4
RAAN
210.2799°
Arg perigee
81.2393°
Mean anomaly
278.8736°
Rev number
1,570

§ Raw data

STARLINK-367801 67866U 26034S   26144.90293892  .00016318  00000+0  56220-3 0  99932 67866  53.1589 210.2799 0001133  81.2393 278.8736 15.30180248 15706

JSON: /api/v1/satellites/67866 · /tle

For live sub-satellite position, see the globe view (requires WebGL).

§ Visibility from observer

Set your observer location to see the next 7 days of passes ≥ 10°. The values pass through the URL so the page stays shareable.

No JS? Fill the form by hand. The geolocation button needs JavaScript.